Location: Kawakawa
(35.3830°S, 174.0670°E)
Time: 09:35:28
(UTC+13:00)

Altair - Pass Details

Date: 08 December 2019
Orbit: 1502 x 1682 km, 47.2° (Epoch: 25 January)

Event Time Altitude Azimuth Distance (km) Brightness Sun altitude
Rises 09:58:29 0° 322° (NW) 4,733 9.8 45.6°
Reaches altitude 10° 10:01:32 10° 325° (NW) 3,777 9.4 46.2°
Maximum altitude 10:11:01 63° 43° (NE) 1,784 9.2 48.2°
Drops below altitude 10° 10:20:55 10° 121° (ESE) 3,934 10.3 50.2°
Sets 10:24:09 0° 123° (ESE) 4,938 10.6 50.8°
